Skip Page Navigation
NASA JPL Caltech
NASA Logo - Jet Propulsion Laboratory + View the NASA Portal
+ Center for Near-Earth Object Studies
JPL Home Earth Solar System Stars & Galaxies Technology
JPL Solar System Dynamics
BODIES ORBITS EPHEMERIDES TOOLS PHYSICAL DATA DISCOVERY FAQ SITE MAP
JPL Small-Body Database Browser
Search: [ help ]  
351466 (2005 NZ65)
Classification: Main-belt Asteroid          SPK-ID: 2351466
Ephemeris | Orbit Diagram | Orbital Elements | Mission Design | Physical Parameters | Discovery Circumstances | Close-Approach Data ]

[ hide orbit diagram ]

For accurate long-term ephemerides, please instead use our Horizons system.This orbit viewer was implemented using two-body methods, and hence should not be used for determining accurate long-term trajectories (over several years or decades) or planetary encounter circumstances.


[ revert to old Java-based viewer ]

Orbital Elements at Epoch 2459000.5 (2020-May-31.0) TDB
Reference: JPL 4 (heliocentric ecliptic J2000)
 Element Value Uncertainty (1-sigma)   Units 
e .142135173073956 1.5448e-07  
a 3.127699737033967 5.1709e-08 au
q 2.683143593587277 5.008e-07 au
i 13.74554217632816 2.9808e-05 deg
node 299.4026057185753 3.781e-05 deg
peri 67.14877598110088 0.00011014 deg
M 204.0621716473694 0.00010143 deg
tp 2459875.655019947878
(2022-Oct-23.15501995)
0.00058089 TDB
period 2020.393707604953
5.53
5.0104e-05
1.372e-07
d
yr
n .1781830930500951 4.4188e-09 deg/d
Q 3.572255880480657 5.9059e-08 au
  Orbit Determination Parameters
   # obs. used (total)      79  
   data-arc span      6242 days (17.09 yr)  
   first obs. used      2002-01-09  
   last obs. used      2019-02-11  
   planetary ephem.      DE431  
   SB-pert. ephem.      SB431-N16  
   condition code      0  
   norm. resid. RMS      .44581  
   source      ORB  
   producer      Otto Matic  
   solution date      2019-Jul-14 04:13:08  

Additional Information
 Earth MOID = 1.71606 au 
 Jupiter MOID = 1.99519 au 
 T_jup = 3.155 
[ show covariance matrix ]

Ephemeris | Orbit Diagram | Orbital Elements | Mission Design | Physical Parameters | Discovery Circumstances | Close-Approach Data ]

Physical Parameter Table
Parameter Symbol Value Units Sigma Reference Notes
absolute magnitude H 16.1   n/a MPO471639  

351466 (2005 NZ65)          Discovered 2005-Jul-01 by Spacewatch at Kitt Peak
Reference: 20130127/Numbers.arcLast Updated: 2013-01-31

[ show close-approach data ]
Ephemeris | Orbit Diagram | Orbital Elements | Mission Design | Physical Parameters | Discovery Circumstances | Close-Approach Data ]
ABOUT SSD CREDITS/AWARDS PRIVACY/COPYRIGHT GLOSSARY LINKS
FirstGov 2020-Aug-05 11:31 UT
(server date/time)  
NASA Home Page
Site Manager:   Ryan S. Park
Webmaster  Alan B. Chamberlin